Regional Weather Roundup
Issued by NWS Burlington, VT

Current Version | Previous Version | Text Only | Print | Product List | Glossary On
Versions: 1 2 3 4 5 6 7 8 9 10 11 12 13 14 15 16 17 18 19 20 21 22 23 24 25 26 27 28 29 30 31 32 33 34 35 36 37 38 39 40 41 42 43 44 45 46 47 48 49 50
000
ASUS41 KBTV 251930
RWRBTV
VERMONT REGIONAL WEATHER ROUNDUP
NATIONAL WEATHER SERVICE BURLINGTON VT
300 PM EDT MON MAY 25 2015

NOTE: "FAIR" INDICATES FEW OR NO CLOUDS BELOW 12,000 FEET WITH NO
SIGNIFICANT WEATHER AND/OR OBSTRUCTIONS TO VISIBILITY.

* THESE REPORTS ARE NOT UNDER NWS QUALITY CONTROL AND/OR DO NOT
  REPORT WEATHER SUCH AS PRECIPITATION AND FOG.

VTZ001>019-252000-
_____VERMONT_____


CITY           SKY/WX    TMP DP  RH WIND       PRES   REMARKS
BURLINGTON     CLOUDY    70  55  59 S6        30.11F
MONTPELIER     CLOUDY    68  51  54 S9        30.20
MORRISVILLE    CLOUDY    71  55  56 S5        30.15F
ST. JOHNSBURY*   N/A     72  52  49 MISG      30.13F
LYNDONVILLE*   LGT RAIN  69  51  52 CALM      30.18F
MIDDLEBURY*      N/A     71  58  62 S3        30.11F
RUTLAND*       CLOUDY    73  52  46 SE6       30.13F
SPRINGFIELD    CLOUDY    70  54  56 CALM      30.17F
HIGHGATE*      LGT RAIN  65  59  80 CALM      30.12F
NEWPORT*       MOCLDY    65  54  67 SW8       30.15S
BENNINGTON     MOCLDY    82  55  39 S9        30.13F
SUTTON*          N/A     66 N/A N/A MISG        N/A
GALLUP MILLS*    N/A     64 N/A N/A MISG        N/A
MT. MANSFIELD*   N/A     55 N/A N/A CALM        N/A

_____LAKE CHAMPLAIN_____


CITY           SKY/WX    TMP DP  RH WIND       PRES   REMARKS
BURTON ISLAND*   N/A     59  54  82 S6          N/A
COLCHESTER RF*   N/A     59  52  77 S13         N/A
DIAMOND ISL*     N/A     63  54  72 S7          N/A

$$

NYZ007-026>031-035-052-083-252000-
_____NORTHERN NEW YORK_____


CITY           SKY/WX    TMP DP  RH WIND       PRES   REMARKS
PLATTSBURGH    CLOUDY    61  52  72 SE6       30.11F
SARANAC LAKE   CLOUDY    71  51  49 VRB3      30.09F
MASSENA        LGT RAIN  65  61  87 N5        30.09F
OGDENSBURG*    PTCLDY    70  63  78 E5        30.03F
POTSDAM*       CLOUDY    70  64  83 NE8       30.04F
STARK FALLS*     N/A     73 N/A N/A SW12        N/A
WATERTOWN      MOCLDY    82  54  37 SW12      30.02F
FT DRUM        MOCLDY    85  55  35 SW12G23   30.03F
ALBANY         MOCLDY    82  57  42 SE14      30.10F
GLENS FALLS    PTCLDY    75  54  47 S7        30.11

$$
NHZ002-005-011-252000-
_____NEW HAMPSHIRE_____


CITY           SKY/WX    TMP DP  RH WIND       PRES   REMARKS
LEBANON        CLOUDY    70  56  61 CALM      30.16F
KEENE          CLOUDY    75  54  46 S10       30.17F
MT WASHINGTON  LGT RAIN  45  45 100 W41G51      N/A  VSB 1/8
PLYMOUTH       CLOUDY    73  57  56 CALM      30.15F
WHITEFIELD     LGT RAIN  70  51  51 SW6       30.17S

$$

_____REGIONAL QUEBEC LOCATIONS_____


CITY           SKY/WX    TMP DP  RH WIND       PRES   REMARKS
MONTREAL       LGT RAIN  63  61  94 S7        30.11F
QUEBEC CITY    CLOUDY    68  54  60 W14G22    30.05S
SHERBROOKE     LGT RAIN  68  54  60 W12G17    30.13S

_____REGIONAL ONTARIO LOCATIONS_____


CITY           SKY/WX    TMP DP  RH WIND       PRES   REMARKS
OTTAWA         LGT RAIN  61  61 100 E6        30.07F

______KEY______
VSB  - VISIBILITY IN MILES
WCI  - WIND CHILL INDEX
HX   - HEAT INDEX
$$
NNNN


USA.gov is the U.S. government's official web portal to all federal, state and local government web resources and services.